User: anonymous   Login
Location: Fisheating Creek Campgrounds
(26.9333°N, 81.3167°W)
Time: 07:04:51
(UTC-04:00)
Language:

NATO 3D Rocket - Orbit

View from above orbital plane
View from above orbital plane
View from above satellite
View from above satellite

Ground track
Ground track

The orbit data is extracted from the following two-line orbital elements,

1 15392U 84115B   17290.56878283 +.00000158 +00000-0 -28180-5 0  9994
2 15392 021.4968 111.9027 1034451 305.1889 045.5871 12.45554616481490
Epoch (UTC): 17 October 2017 13:39:02
Eccentricity: 0.1034451
inclination: 21.4968°
perigee height: 670 km
apogee height: 2296 km
right ascension of ascending node: 111.9027°
argument of perigee: 305.1889°
revolutions per day: 12.45554616
mean anomaly at epoch: 45.5871°
orbit number at epoch: 48149

The dashed part of the orbit path shows where the satellite is in the earth's shadow,  

DLR